TimeAEST,TemperatureF,Dew PointF,Humidity,Sea Level PressureIn,VisibilityMPH,Wind Direction,Wind SpeedMPH,Gust SpeedMPH,PrecipitationIn,Events,Conditions,WindDirDegrees,DateUTC
12:00 AM,67,59,67,30.17,,NE,5.8,,,,,50,2013-08-24 14:00:00
12:00 AM,68.0,59.0,73,30.15,-9999.0,NE,5.8,-,N/A,,Unknown,50,2013-08-24 14:00:00
12:30 AM,68.0,59.0,73,30.15,-9999.0,NE,4.6,-,N/A,,Unknown,40,2013-08-24 14:30:00
1:00 AM,66.2,59.0,78,30.15,-9999.0,NE,3.5,-,N/A,,Unknown,50,2013-08-24 15:00:00
1:30 AM,66.2,59.0,78,30.15,-9999.0,ENE,3.5,-,N/A,,Unknown,60,2013-08-24 15:30:00
2:00 AM,68.0,62.6,83,30.15,-9999.0,Calm,Calm,-,N/A,,Unknown,0,2013-08-24 16:00:00
2:30 AM,66.2,60.8,83,30.12,-9999.0,NE,2.3,-,N/A,,Unknown,50,2013-08-24 16:30:00
3:00 AM,66,63,87,30.14,,Calm,Calm,,,,,,2013-08-24 17:00:00
3:00 AM,66.2,62.6,88,30.12,-9999.0,Calm,Calm,-,N/A,,Unknown,0,2013-08-24 17:00:00
3:30 AM,66.2,62.6,88,30.12,-9999.0,WNW,2.3,-,N/A,,Unknown,300,2013-08-24 17:30:00
4:00 AM,66.2,62.6,88,30.12,-9999.0,Calm,Calm,-,N/A,,Unknown,0,2013-08-24 18:00:00
4:30 AM,64.4,60.8,88,30.12,-9999.0,South,3.5,-,N/A,,Unknown,170,2013-08-24 18:30:00
5:00 AM,66.2,62.6,88,30.12,-9999.0,South,10.4,-,N/A,,Unknown,180,2013-08-24 19:00:00
5:30 AM,66.2,62.6,88,30.12,-9999.0,South,12.7,-,N/A,,Unknown,170,2013-08-24 19:30:00
6:00 AM,66,63,86,30.16,,South,11.5,,,,,170,2013-08-24 20:00:00
6:00 AM,66.2,62.6,88,30.15,-9999.0,South,11.5,-,N/A,,Unknown,170,2013-08-24 20:00:00
6:30 AM,66.2,62.6,88,30.15,-9999.0,South,12.7,-,N/A,,Unknown,170,2013-08-24 20:30:00
7:00 AM,68.0,62.6,83,30.18,-9999.0,SSE,11.5,-,N/A,,Unknown,160,2013-08-24 21:00:00
7:30 AM,68.0,62.6,83,30.18,-9999.0,SSE,11.5,-,N/A,,Unknown,160,2013-08-24 21:30:00
8:00 AM,69.8,62.6,78,30.18,-9999.0,SSE,13.8,-,N/A,,Unknown,150,2013-08-24 22:00:00
8:30 AM,69.8,62.6,78,30.18,-9999.0,SSE,13.8,-,N/A,,Unknown,150,2013-08-24 22:30:00
9:00 AM,70,63,72,30.21,,SSE,15.0,,,,,160,2013-08-24 23:00:00
9:00 AM,69.8,62.6,78,30.21,-9999.0,SSE,15.0,-,N/A,,Unknown,160,2013-08-24 23:00:00
9:30 AM,69.8,62.6,78,30.21,-9999.0,SSE,16.1,-,N/A,,Unknown,150,2013-08-24 23:30:00
10:00 AM,73.4,62.6,69,30.21,-9999.0,SE,15.0,-,N/A,,Unknown,140,2013-08-25 00:00:00
10:30 AM,73.4,62.6,69,30.21,-9999.0,SE,15.0,-,N/A,,Unknown,130,2013-08-25 00:30:00
11:00 AM,73.4,66.2,78,30.21,-9999.0,SE,16.1,-,N/A,,Unknown,140,2013-08-25 01:00:00
11:30 AM,73.4,62.6,69,30.21,-9999.0,SE,16.1,-,N/A,,Unknown,130,2013-08-25 01:30:00
12:00 PM,73,63,64,30.21,,ESE,17.3,,,,,120,2013-08-25 02:00:00
12:00 PM,73.4,62.6,69,30.21,-9999.0,ESE,17.3,-,N/A,,Unknown,120,2013-08-25 02:00:00
12:30 PM,73.4,62.6,69,30.18,-9999.0,SE,19.6,-,N/A,,Unknown,130,2013-08-25 02:30:00
1:00 PM,73.4,62.6,69,30.18,-9999.0,SE,18.4,-,N/A,,Unknown,130,2013-08-25 03:00:00
1:30 PM,73.4,60.8,65,30.15,-9999.0,SE,18.4,-,N/A,,Unknown,130,2013-08-25 03:30:00
2:00 PM,71.6,59.0,64,30.15,-9999.0,ESE,18.4,-,N/A,,Unknown,120,2013-08-25 04:00:00
2:30 PM,73.4,60.8,65,30.15,-9999.0,SE,19.6,-,N/A,,Unknown,130,2013-08-25 04:30:00
3:00 PM,72,60,57,30.15,,ESE,19.6,,,,,120,2013-08-25 05:00:00
3:00 PM,71.6,60.8,69,30.15,-9999.0,ESE,19.6,-,N/A,,Unknown,120,2013-08-25 05:00:00
3:30 PM,71.6,60.8,69,30.15,-9999.0,SE,19.6,-,N/A,,Unknown,130,2013-08-25 05:30:00
4:00 PM,71.6,62.6,73,30.15,-9999.0,SE,19.6,-,N/A,,Unknown,130,2013-08-25 06:00:00
4:30 PM,69.8,60.8,73,30.15,-9999.0,SE,19.6,-,N/A,,Unknown,130,2013-08-25 06:30:00
5:00 PM,69.8,60.8,73,30.15,-9999.0,ESE,21.9,-,N/A,,Unknown,120,2013-08-25 07:00:00
5:30 PM,69.8,59.0,68,30.15,-9999.0,ESE,20.7,-,N/A,,Unknown,120,2013-08-25 07:30:00
6:00 PM,69,58,60,30.17,,ESE,18.4,,,,,110,2013-08-25 08:00:00
6:00 PM,69.8,59.0,68,30.15,-9999.0,ESE,18.4,-,N/A,,Unknown,110,2013-08-25 08:00:00
6:30 PM,69.8,60.8,73,30.15,-9999.0,SE,19.6,-,N/A,,Unknown,130,2013-08-25 08:30:00
7:00 PM,69.8,60.8,73,30.18,-9999.0,SE,18.4,-,N/A,,Unknown,130,2013-08-25 09:00:00
7:30 PM,69.8,60.8,73,30.18,-9999.0,SE,18.4,-,N/A,,Unknown,130,2013-08-25 09:30:00
8:00 PM,68.0,60.8,78,30.18,-9999.0,ESE,16.1,-,N/A,,Unknown,120,2013-08-25 10:00:00
8:30 PM,68.0,62.6,83,30.18,-9999.0,SE,16.1,-,N/A,,Unknown,130,2013-08-25 10:30:00
9:00 PM,69,63,76,30.20,,SE,15.0,,,,,130,2013-08-25 11:00:00
9:00 PM,68.0,62.6,83,30.18,-9999.0,SE,15.0,-,N/A,,Unknown,130,2013-08-25 11:00:00
9:30 PM,68.0,62.6,83,30.18,-9999.0,SSE,11.5,-,N/A,,Unknown,150,2013-08-25 11:30:00
10:00 PM,68.0,60.8,78,30.18,-9999.0,ESE,12.7,-,N/A,,Unknown,120,2013-08-25 12:00:00
10:30 PM,69.8,60.8,73,30.18,-9999.0,SE,13.8,-,N/A,,Unknown,130,2013-08-25 12:30:00
11:00 PM,69.8,62.6,78,30.18,-9999.0,ESE,13.8,-,N/A,,Unknown,120,2013-08-25 13:00:00
11:30 PM,69.8,60.8,73,30.18,-9999.0,ESE,17.3,-,N/A,,Unknown,110,2013-08-25 13:30:00